#timestamp,LO_Frequency,Hit,Temp,Hum 
1478131215.4,286047036.6,N,0.0,0.0
1478131235.3,286047038.5,N,0.0,0.0
1478131255.1,286047036.7,N,0.0,0.0
1478131275.8,286047036.6,N,0.0,0.0
1478131295.7,286047037.0,N,0.0,0.0
1478131315.5,286047039.6,N,0.0,0.0
1478131335.3,286047037.5,N,0.0,0.0
1478131355.2,286047037.1,N,0.0,0.0
1478131375.0,286047036.9,N,0.0,0.0
1478131375.9,286047036.9,N,0.0,0.0
1478131395.8,286047039.6,N,0.0,0.0
1478131415.6,286047039.2,N,0.0,0.0
1478131435.4,286047036.5,N,0.0,0.0
1478131455.3,286047039.5,N,0.0,0.0
1478131475.1,286047039.2,N,0.0,0.0
1478131476.0,286047039.2,N,0.0,0.0
1478131495.8,286047039.3,N,0.0,0.0
1478131515.7,286047039.6,N,0.0,0.0
1478131535.5,286047038.7,N,0.0,0.0
1478131555.3,286047038.9,N,0.0,0.0
1478131575.2,286047038.6,N,0.0,0.0
1478131595.0,286047040.8,N,0.0,0.0
1478131595.9,286047040.8,N,0.0,0.0
1478131615.7,286047039.6,N,0.0,0.0
1478131635.6,286047037.1,N,0.0,0.0
1478131655.4,286047038.9,N,0.0,0.0
1478131675.3,286047041.2,N,0.0,0.0
1478131695.1,286047038.6,N,0.0,0.0
1478131696.0,286047038.6,N,0.0,0.0
1478131715.8,286047038.5,N,0.0,0.0
1478131735.7,286047037.1,N,0.0,0.0
1478131755.5,286047038.3,N,0.0,0.0
1478131775.3,286047038.8,N,0.0,0.0
1478131795.2,286047039.3,N,0.0,0.0
1478131815.9,286047038.7,N,0.0,0.0
1478131835.7,286047038.6,N,0.0,0.0
1478131855.6,286047038.5,N,0.0,0.0
1478131875.4,286047039.2,N,0.0,0.0
1478131895.2,286047039.2,N,0.0,0.0
1478131915.1,286047038.5,N,0.0,0.0
1478131916.0,286047038.5,N,0.0,0.0
1478131935.8,286047038.1,N,0.0,0.0
1478131955.6,286047040.5,N,0.0,0.0
1478131975.5,286047038.1,N,0.0,0.0
1478131995.3,286047040.4,N,0.0,0.0
1478132015.2,286047040.8,N,0.0,0.0
1478132035.9,286047040.4,N,0.0,0.0
1478132055.7,286047040.7,N,0.0,0.0
1478132075.6,286047040.9,N,0.0,0.0
1478132095.4,286047041.0,N,0.0,0.0
1478132115.2,286047040.0,N,0.0,0.0
1478132135.1,286047039.8,N,0.0,0.0
1478132136.0,286047039.8,N,0.0,0.0
1478132155.8,286047040.9,N,0.0,0.0
1478132175.6,286047038.8,N,0.0,0.0
1478132195.5,286047041.1,N,0.0,0.0
1478132215.3,286047040.9,N,0.0,0.0
1478132235.1,286047040.4,N,0.0,0.0
1478132255.9,286047039.8,N,0.0,0.0
1478132275.7,286047040.2,N,0.0,0.0
1478132295.5,286047038.1,N,0.0,0.0
1478132315.4,286047041.2,N,0.0,0.0
1478132335.2,286047042.4,N,0.0,0.0
1478132355.1,286047040.3,N,0.0,0.0
1478132356.0,286047040.3,N,0.0,0.0
1478132375.8,286047040.1,N,0.0,0.0
1478132395.6,286047042.7,N,0.0,0.0
1478132415.5,286047042.6,N,0.0,0.0
1478132435.3,286047042.7,N,0.0,0.0
1478132455.1,286047042.4,N,0.0,0.0
1478132475.9,286047040.3,N,0.0,0.0
1478132495.7,286047040.6,N,0.0,0.0
1478132515.5,286047040.4,N,0.0,0.0
1478132535.4,286047042.3,N,0.0,0.0
1478132555.2,286047040.3,N,0.0,0.0
1478132575.0,286047039.8,N,0.0,0.0
1478132575.9,286047039.8,N,0.0,0.0
1478132595.8,286047041.9,N,0.0,0.0
1478132615.6,286047042.3,N,0.0,0.0
1478132635.5,286047039.7,N,0.0,0.0
1478132655.3,286047041.9,N,0.0,0.0
1478132675.1,286047040.1,N,0.0,0.0
1478132695.9,286047042.4,N,0.0,0.0
1478132715.7,286047042.3,N,0.0,0.0
1478132735.5,286047042.2,N,0.0,0.0
1478132755.4,286047044.4,N,0.0,0.0
1478132775.2,286047042.2,N,0.0,0.0
1478132795.0,286047044.4,N,0.0,0.0
1478132795.9,286047044.4,N,0.0,0.0
1478132815.8,286047042.2,N,0.0,0.0
1478132835.6,286047042.3,N,0.0,0.0
1478132855.4,286047042.5,N,0.0,0.0
1478132875.3,286047041.5,N,0.0,0.0
1478132895.1,286047044.2,N,0.0,0.0
1478132915.8,286047042.5,N,0.0,0.0
1478132935.7,286047041.5,N,0.0,0.0
1478132955.5,286047041.7,N,0.0,0.0
1478132975.4,286047041.7,N,0.0,0.0
1478132995.2,286047043.1,N,0.0,0.0
1478133015.0,286047043.5,N,0.0,0.0
1478133015.9,286047043.5,N,0.0,0.0
1478133035.8,286047043.5,N,0.0,0.0
1478133055.6,286047044.1,N,0.0,0.0
1478133075.4,286047041.7,N,0.0,0.0
1478133095.3,286047044.3,N,0.0,0.0
1478133115.1,286047044.1,N,0.0,0.0
1478133135.8,286047043.6,N,0.0,0.0
1478133155.7,286047043.6,N,0.0,0.0
1478133175.5,286047043.2,N,0.0,0.0
1478133195.3,286047044.2,N,0.0,0.0
1478133215.2,286047043.3,N,0.0,0.0
1478133235.0,286047043.6,N,0.0,0.0
1478133235.9,286047043.6,N,0.0,0.0
1478133255.7,286047044.1,N,0.0,0.0
1478133275.6,286047043.1,N,0.0,0.0
1478133295.4,286047043.6,N,0.0,0.0
1478133315.3,286047043.5,N,0.0,0.0
1478133335.1,286047043.4,N,0.0,0.0
1478133336.0,286047043.4,N,0.0,0.0
1478133355.8,286047042.9,N,0.0,0.0
1478133375.7,286047045.6,N,0.0,0.0
1478133395.5,286047042.9,N,0.0,0.0
1478133415.3,286047045.4,N,0.0,0.0
1478133435.2,286047044.5,N,0.0,0.0
1478133455.9,286047045.8,N,0.0,0.0
1478133475.7,286047043.0,N,0.0,0.0
1478133495.6,286047042.9,N,0.0,0.0
1478133515.4,286047044.7,N,0.0,0.0
1478133535.2,286047043.4,N,0.0,0.0
1478133555.1,286047043.4,N,0.0,0.0
1478133556.0,286047043.4,N,0.0,0.0
1478133575.8,286047041.3,N,0.0,0.0
1478133595.7,286047042.9,N,0.0,0.0
1478133615.5,286047045.7,N,0.0,0.0
1478133635.3,286047046.0,N,0.0,0.0
1478133655.2,286047045.1,N,0.0,0.0
1478133675.9,286047044.8,N,0.0,0.0
1478133695.7,286047047.1,N,0.0,0.0
1478133715.6,286047045.1,N,0.0,0.0
1478133735.4,286047044.6,N,0.0,0.0
1478133755.2,286047045.1,N,0.0,0.0
1478133775.1,286047045.1,N,0.0,0.0
1478133776.0,286047045.1,N,0.0,0.0
1478133795.8,286047044.9,N,0.0,0.0
1478133815.6,286047044.9,N,0.0,0.0
1478133835.5,286047044.6,N,0.0,0.0
1478133855.3,286047044.8,N,0.0,0.0
1478133875.1,286047044.9,N,0.0,0.0
1478133895.9,286047044.8,N,0.0,0.0
1478133915.7,286047047.2,N,0.0,0.0
1478133935.6,286047044.5,N,0.0,0.0
1478133955.4,286047047.6,N,0.0,0.0
1478133975.2,286047044.6,N,0.0,0.0
1478133995.1,286047047.4,N,0.0,0.0
1478133996.0,286047047.4,N,0.0,0.0
1478134015.8,286047044.9,N,0.0,0.0
1478134035.6,286047044.9,N,0.0,0.0
1478134055.5,286047046.8,N,0.0,0.0
1478134075.3,286047046.6,N,0.0,0.0
1478134095.1,286047046.3,N,0.0,0.0
1478134115.9,286047049.2,N,0.0,0.0
1478134135.7,286047048.7,N,0.0,0.0
1478134155.5,286047046.2,N,0.0,0.0
1478134175.4,286047049.2,N,0.0,0.0
1478134195.2,286047046.4,N,0.0,0.0
1478134215.0,286047047.0,N,0.0,0.0
1478134216.0,286047047.0,N,0.0,0.0
1478134235.8,286047049.0,N,0.0,0.0
1478134255.6,286047046.4,N,0.0,0.0
1478134275.5,286047047.2,N,0.0,0.0
1478134295.3,286047046.7,N,0.0,0.0
1478134315.1,286047047.3,N,0.0,0.0
1478134335.9,286047047.1,N,0.0,0.0
1478134355.7,286047046.4,N,0.0,0.0
1478134375.5,286047046.4,N,0.0,0.0
1478134395.4,286047046.7,N,0.0,0.0
1478134415.2,286047047.1,N,0.0,0.0
1478134435.0,286047040.7,N,0.0,0.0
1478134435.9,286047040.7,N,0.0,0.0
1478134455.8,286047044.6,N,0.0,0.0
1478134475.6,286047046.6,N,0.0,0.0
1478134495.4,286047048.8,N,0.0,0.0
1478134515.3,286047045.3,N,0.0,0.0
1478134535.1,286047045.9,N,0.0,0.0
1478134555.8,286047043.3,N,0.0,0.0
1478134575.7,286047044.7,N,0.0,0.0
1478134595.5,286047044.6,N,0.0,0.0
1478134615.4,286047044.5,N,0.0,0.0
1478134635.2,286047046.3,N,0.0,0.0
1478134655.0,286047046.5,N,0.0,0.0
1478134655.9,286047046.5,N,0.0,0.0
1478134675.8,286047046.3,N,0.0,0.0
1478134695.6,286047047.2,N,0.0,0.0
1478134715.4,286047046.6,N,0.0,0.0
1478134735.3,286047046.9,N,0.0,0.0
1478134755.1,286047046.4,N,0.0,0.0
1478134775.8,286047048.8,N,0.0,0.0
1478134795.7,286047046.7,N,0.0,0.0
